Погода в Македонии

США     41°18′48″N   81°30′30″W
темп.,
°C
ветер,
м/с
пор.,
м/с
влажн.,
%
обл.,
%
осадки,
мм/ч
давл.,
гПа
погр.,
м
21 октября, чт
чт2123:00+13ююз396956 0.0 1017186
02:00+12юз3127628 0.0 1016281
05:00+13ююз3107116 0.0 1014256
08:00+12ююз4148013 0.0 1013377
11:00+17ююз61371100 0.0 1011683
14:00+16юз6129346 4.5 1009977
17:00+16зюз6128752 1.8 10071149
20:00+11з6128273 2.4 1011810
22 октября, пт
пт2223:00+9з4108518 0.0 1012481
02:00+10зюз41084100 0.0 1013464
05:00+10сз3793100 0.3 1013641
08:00+10сз3591100 0.6 1015451
11:00+9зсз358699 0.3 1017605
14:00+12з3452100 0.4 10151356
17:00+11зсз3453100 0.0 10151107
20:00+8зсз2466100 0.0 1017201
23 октября, сб
сб2323:00+6з117150 0.0 101742
02:00+8юз1264100 0.0 1016115
05:00+8ю246784 0.0 1016236
08:00+6ююз269372 0.0 1017173
11:00+11зюз586876 0.0 1017966
14:00+13з584358 0.0 10161556
17:00+12сз475414 0.0 10161250
20:00+7ссз12735 0.0 101868
24 октября, вс
вс2423:00+7ююв227546 0.0 101818
02:00+9ююв1367100 0.0 1017112
05:00+8ююв1380100 0.3 1018116
08:00+9вюв1281100 0.3 101783
11:00+11ю1286100 0.1 1017169
14:00+11юз1195100 1.9 101561
17:00+10ссв2499100 8.2 1015225
20:00+9всв4996100 15.3 1015359
25 октября, пн
пн2523:00+9всв41096100 2.8 1015407
02:00+9всв4997100 6.6 1014387
05:00+8в41097100 5.3 1014366
08:00+8в61297100 7.2 1011374
11:00+9в5997100 5.2 1010342
14:00+10в2498100 7.7 1009193
17:00+10всв2398100 1.3 1009124
20:00+10ссз2499100 1.5 1010250